Вернуться в каталог

STARLINK-5697

АктивенСвязьVLEO
NORAD 55589·PAYLOAD·🇺🇸 United States

Запущен Feb 12, 2023 с Cape Canaveral Space Force Station

Loading…

Ближайшие Пролёты (ближайшие 24 часа)

TLE

СвежийSource: CelesTrak SupGP

Эпоха: Sep 14, 2026, 21:24 UTC

1 55589C 23020W   26257.89215278  .00014721  00000+0  53318-3 0  2577
2 55589  43.0045  16.6997 0002216 276.7031 265.4311 15.27570801    14

Отслеживайте STARLINK-5697 в реальном времени с AllMySat

Download on the App Store